Weather reports worldwide

Advertisment
Shawbury, United Kingdom (3414): temperature & dewpoint: 04.12.2018 09:00:00 - 10.12.2018 09:00:00 (GMT)Shawbury, United Kingdom (3414): temperature -20cm & temperature -100cm: 04.12.2018 09:00:00 - 10.12.2018 09:00:00 (GMT)Shawbury, United Kingdom (3414): wind speed & gusts: 04.12.2018 09:00:00 - 10.12.2018 09:00:00 (GMT)Shawbury, United Kingdom (3414): wind direction: 04.12.2018 09:00:00 - 10.12.2018 09:00:00 (GMT)Shawbury, United Kingdom (3414): reduced air pressure: 04.12.2018 09:00:00 - 10.12.2018 09:00:00 (GMT)Shawbury, United Kingdom (3414): visibility: 04.12.2018 09:00:00 - 10.12.2018 09:00:00 (GMT)Shawbury, United Kingdom (3414): sunshine duration: 04.12.2018 09:00:00 - 10.12.2018 09:00:00 (GMT)Shawbury, United Kingdom (3414): precipitation: 04.12.2018 09:00:00 - 10.12.2018 09:00:00 (GMT)
Date & Time tt [°C] td [°C] tt -20cm [°C] tt -100cm [°C] ff [km/h] ff [kn] fx [km/h] fx [kn] dd ppp [hPa] vv [km] sd [min] rr [mm]
10.12.2018 09:00:00 5,0 3,4 8,4 9,5 15 8 - - W 1026,6 10 0 0,0
10.12.2018 08:00:00 5,7 3,8 - - 13 7 - - W 1026,4 10 0 0,0
10.12.2018 07:00:00 6,1 4,0 - - 15 8 - - W 1025,6 10 0 0,0
10.12.2018 06:00:00 6,2 3,9 - - 16 9 - - W 1025,3 45 0 0,0
10.12.2018 05:00:00 4,8 3,8 - - 15 8 - - WSW 1024,9 10 0 0,0
10.12.2018 04:00:00 4,9 4,0 - - 11 6 - - W 1024,7 45 0 0,0
10.12.2018 03:00:00 3,0 1,9 - - 9 5 - - NNW 1024,1 40 0 0,0
10.12.2018 02:00:00 4,6 3,1 - - 8 4 - - W 1023,6 30 0 0,0
10.12.2018 01:00:00 5,6 3,7 - - 15 8 - - W 1023,3 10 0 0,0
10.12.2018 00:00:00 5,8 4,2 - - 13 7 - - W 1022,7 10 - 0,0
09.12.2018 23:00:00 5,5 4,2 - - 16 9 - - W 1022,0 35 0 0,0
09.12.2018 22:00:00 5,4 3,8 - - 13 7 - - W 1021,5 40 0 0,0
09.12.2018 21:00:00 6,3 4,6 - - 15 8 - - W 1020,9 10 0 0,0
09.12.2018 20:00:00 6,6 4,7 - - 16 9 - - W 1020,2 10 0 0,0
09.12.2018 19:00:00 6,8 5,1 - - 13 7 - - WSW 1019,7 35 0 0,0
09.12.2018 18:00:00 6,7 4,7 - - 16 9 - - WSW 1018,7 40 0 0,0
09.12.2018 17:00:00 7,1 4,8 - - 18 10 - - W 1017,5 45 0 0,2
09.12.2018 16:00:00 8,0 4,5 - - 29 16 - - WNW 1016,4 25 0 0,0
09.12.2018 15:00:00 8,1 4,3 - - 24 13 - - WNW 1014,9 35 12 0,0
09.12.2018 14:00:00 8,7 5,3 - - 16 9 - - WNW 1013,5 35 18 0,0
09.12.2018 13:00:00 8,5 5,7 - - 28 15 - - WNW 1012,1 24 12 0,6
09.12.2018 12:00:00 8,7 6,2 - - 21 11 50 27 WNW 1011,2 35 6 0,2
09.12.2018 11:00:00 8,2 6,2 - - 18 10 - - WNW 1009,9 22 18 0,0
09.12.2018 10:00:00 7,9 5,9 - - 16 9 - - W 1008,0 10 48 0,0
09.12.2018 09:00:00 7,1 5,2 8,7 9,5 21 11 - - WNW 1006,2 10 0 0,6
09.12.2018 08:00:00 7,8 6,4 - - 22 12 - - WNW 1004,0 15 0 1,2
09.12.2018 07:00:00 8,0 5,9 - - 24 13 46 25 W 1001,4 10 0 1,2
09.12.2018 06:00:00 8,5 6,0 - - 24 13 - - W 999,5 21 0 0,0
09.12.2018 05:00:00 7,5 6,1 - - 24 13 - - W 998,3 10 0 1,0
09.12.2018 04:00:00 7,9 6,4 - - 13 7 - - W 997,0 30 0 0,8
09.12.2018 03:00:00 8,2 6,1 - - 24 13 - - WSW 996,6 10 0 0,0
09.12.2018 02:00:00 7,9 6,1 - - 22 12 - - WSW 996,6 17 0 0,4
09.12.2018 01:00:00 7,9 5,7 - - 18 10 - - WSW 997,0 24 0 0,0
09.12.2018 00:00:00 8,4 5,3 - - 29 16 50 27 W 996,7 27 - 0,0
08.12.2018 23:00:00 8,6 4,9 - - 29 16 50 27 W 996,4 27 0 0,0
08.12.2018 22:00:00 8,3 5,6 - - 29 16 46 25 WSW 995,8 26 0 0,0
08.12.2018 21:00:00 8,0 6,0 - - 28 15 52 28 WSW 995,8 15 0 0,0
08.12.2018 20:00:00 8,0 5,5 - - 26 14 48 26 WSW 995,7 26 0 0,0
08.12.2018 19:00:00 8,1 5,3 - - 24 13 - - WSW 995,9 29 0 0,0
08.12.2018 18:00:00 9,0 5,1 - - 26 14 46 25 W 995,7 10 0 0,0
08.12.2018 17:00:00 9,0 5,7 - - 29 16 52 28 W 995,4 28 0 0,2
08.12.2018 16:00:00 9,4 6,8 - - 37 20 70 38 WSW 995,4 10 0 4,6
08.12.2018 15:00:00 10,3 9,0 - - 24 13 50 27 WSW 995,2 2,5 0 1,6
08.12.2018 14:00:00 11,2 8,1 - - 41 22 63 34 WSW 996,1 27 30 0,0
08.12.2018 13:00:00 10,6 8,5 - - 16 9 46 25 SSW 997,2 50 0 0,0
08.12.2018 12:00:00 9,8 7,1 - - 37 20 - - SW 999,3 30 30 0,0
08.12.2018 11:00:00 9,3 6,3 - - 31 17 55 30 W 1001,2 24 48 0,0
08.12.2018 10:00:00 8,6 5,4 - - 26 14 48 26 W 1001,9 20 42 0,0
08.12.2018 09:00:00 8,2 4,5 8,7 9,5 35 19 54 29 WSW 1002,5 29 0 0,0
08.12.2018 08:00:00 7,6 4,6 - - 34 18 48 26 WSW 1002,6 25 0 0,0
08.12.2018 07:00:00 7,9 5,5 - - 31 17 52 28 WSW 1002,1 26 0 0,2
08.12.2018 06:00:00 7,9 6,0 - - 31 17 52 28 WSW 1001,6 10 0 0,0
08.12.2018 05:00:00 7,8 6,1 - - 35 19 54 29 W 1000,8 17 0 0,2
08.12.2018 04:00:00 8,2 5,7 - - 39 21 63 34 WSW 1000,3 10 0 0,2
08.12.2018 03:00:00 8,6 5,3 - - 44 24 68 37 WSW 1000,1 29 0 0,0
08.12.2018 02:00:00 8,6 5,2 - - 37 20 55 30 WSW 999,6 17 0 0,2
08.12.2018 01:00:00 7,7 5,6 - - 29 16 55 30 WSW 999,6 19 0 0,8
08.12.2018 00:00:00 7,7 5,7 - - 39 21 61 33 WSW 999,3 14 - 0,6
07.12.2018 23:00:00 7,5 5,3 - - 42 23 63 34 WSW 999,6 4,8 0 0,4
07.12.2018 22:00:00 7,5 4,4 - - 44 24 63 34 WSW 999,8 17 0 0,0
07.12.2018 21:00:00 7,3 4,1 - - 31 17 46 25 WSW 1000,1 10 0 0,0
07.12.2018 20:00:00 6,7 3,9 - - 26 14 - - WSW 1000,5 30 0 0,0
07.12.2018 19:00:00 6,5 3,3 - - 34 18 54 29 WSW 1000,5 24 0 0,0
07.12.2018 18:00:00 6,1 2,0 - - 15 8 - - SW 1000,3 30 0 0,0
07.12.2018 17:00:00 5,8 1,8 - - 18 10 - - W 1000,2 30 0 0,0
07.12.2018 16:00:00 5,8 2,7 - - 28 15 48 26 WSW 999,3 10 0 0,2
07.12.2018 15:00:00 7,2 1,9 - - 31 17 55 30 WSW 998,7 10 54 0,0
07.12.2018 14:00:00 8,1 1,8 - - 31 17 61 33 W 998,5 10 60 0,0
07.12.2018 13:00:00 8,6 1,3 - - 37 20 55 30 W 998,3 10 48 0,0
07.12.2018 12:00:00 8,9 3,5 - - 22 12 - - W 998,5 10 48 0,0
07.12.2018 11:00:00 9,0 3,9 - - 24 13 - - W 998,8 25 30 0,0
07.12.2018 10:00:00 8,5 3,9 - - 22 12 - - W 998,5 10 0 0,0
07.12.2018 09:00:00 8,6 6,2 9,0 9,5 18 10 - - W 998,1 10 0 0,0
07.12.2018 08:00:00 9,5 6,4 - - 26 14 59 32 W 997,4 10 0 0,2
07.12.2018 07:00:00 12,1 10,3 - - 24 13 48 26 SW 996,4 10 0 0,2
07.12.2018 06:00:00 12,2 11,1 - - 24 13 - - SSW 997,3 10 0 0,8
07.12.2018 05:00:00 12,5 11,2 - - 24 13 - - SSW 998,2 18 0 0,8
07.12.2018 04:00:00 12,6 11,4 - - 24 13 - - SSW 999,6 13 0 1,0
07.12.2018 03:00:00 13,3 11,3 - - 26 14 - - S 1001,2 14 0 0,0
07.12.2018 02:00:00 13,4 11,3 - - 26 14 - - S 1002,7 45 0 0,0
07.12.2018 01:00:00 12,3 11,1 - - 15 8 - - SSE 1004,2 10 0 0,0
07.12.2018 00:00:00 12,9 11,1 - - 22 12 - - S 1005,2 10 - 0,0
06.12.2018 23:00:00 11,9 10,5 - - 22 12 - - S 1006,6 30 0 0,0
06.12.2018 22:00:00 12,2 11,0 - - 15 8 - - SSW 1007,9 10 0 0,0
06.12.2018 21:00:00 12,1 11,9 - - 15 8 - - SW 1008,5 30 0 0,0
06.12.2018 20:00:00 11,9 11,7 - - 15 8 - - SW 1009,2 10 0 0,0
06.12.2018 19:00:00 12,1 12,1 - - 15 8 - - SSW 1009,6 5 0 0,2
06.12.2018 18:00:00 12,2 12,0 - - 24 13 - - SW 1009,5 10 0 0,0
06.12.2018 17:00:00 12,3 11,9 - - 22 12 - - SSW 1009,3 10 0 0,0
06.12.2018 16:00:00 12,7 11,3 - - 22 12 - - SW 1009,5 18 0 0,0
06.12.2018 15:00:00 13,1 11,0 - - 21 11 - - SW 1009,4 35 0 0,0
06.12.2018 14:00:00 13,0 10,8 - - 24 13 46 25 SW 1009,5 10 0 0,0
06.12.2018 13:00:00 12,3 10,2 - - 35 19 52 28 SW 1009,7 10 0 0,0
06.12.2018 12:00:00 11,7 9,1 - - 26 14 48 26 SSW 1010,1 10 0 0,0
06.12.2018 11:00:00 11,8 8,9 - - 29 16 48 26 SW 1010,4 10 0 0,0
06.12.2018 10:00:00 11,7 9,8 - - 22 12 - - SW 1010,9 10 0 0,4
06.12.2018 09:00:00 11,5 9,9 8,4 9,5 21 11 - - SW 1010,7 10 0 0,2
06.12.2018 08:00:00 11,3 9,6 - - 21 11 - - SSW 1010,7 30 0 0,0
06.12.2018 07:00:00 11,1 9,6 - - 18 10 - - S 1010,8 10 0 0,0
06.12.2018 06:00:00 11,0 9,2 - - 16 9 - - SSW 1010,6 10 0 0,0
06.12.2018 05:00:00 10,5 9,3 - - 15 8 - - SSW 1011,1 40 0 0,0
06.12.2018 04:00:00 10,7 9,8 - - 13 7 - - SSW 1010,7 40 0 0,0
06.12.2018 03:00:00 10,2 10,2 - - 5 3 - - W 1010,5 10 0 0,0
06.12.2018 02:00:00 10,3 9,9 - - 13 7 - - SW 1010,2 35 0 0,0
06.12.2018 01:00:00 8,0 8,0 - - 2 1 - - SW 1010,5 10 0 0,0
06.12.2018 00:00:00 7,4 7,4 - - 11 6 - - SW 1009,8 2,1 - 0,0
05.12.2018 23:00:00 8,3 8,3 - - 13 7 - - WSW 1009,2 45 0 0,0
05.12.2018 22:00:00 9,3 9,3 - - 5 3 - - SW 1009,0 35 0 0,0
05.12.2018 21:00:00 9,5 9,5 - - 8 4 - - SW 1008,3 20 0 0,0
05.12.2018 20:00:00 9,8 9,8 - - 11 6 - - W 1008,2 18 0 0,0
05.12.2018 19:00:00 9,2 9,2 - - 13 7 - - SW 1007,0 10 0 0,0
05.12.2018 18:00:00 8,6 8,5 - - 2 1 - - NNW 1006,8 8 0 0,2
05.12.2018 17:00:00 9,5 9,1 - - 5 3 - - SSE 1006,3 10 0 0,0
05.12.2018 16:00:00 10,0 9,2 - - 9 5 - - SSW 1006,1 10 0 0,0
05.12.2018 15:00:00 10,6 9,9 - - 9 5 - - S 1006,6 15 0 0,4
05.12.2018 14:00:00 10,4 10,3 - - 11 6 - - SE 1006,1 7 0 0,6
05.12.2018 13:00:00 9,3 9,3 - - 5 3 - - SE 1007,7 6 0 0,6
05.12.2018 12:00:00 8,3 8,3 - - 13 7 - - SE 1008,8 3,4 0 1,0
05.12.2018 11:00:00 7,4 7,4 - - 13 7 - - SE 1010,4 3,0 0 1,6
05.12.2018 10:00:00 6,7 6,7 - - 13 7 - - ESE 1011,6 2,0 0 0,4
05.12.2018 09:00:00 6,4 6,4 8,2 9,7 11 6 - - ESE 1012,3 3,0 0 0,0
05.12.2018 08:00:00 5,9 5,9 - - 13 7 - - ESE 1013,0 4,0 0 0,0
05.12.2018 07:00:00 5,4 5,4 - - 11 6 - - ESE 1013,8 4,0 0 0,0
05.12.2018 06:00:00 5,0 5,0 - - 15 8 - - ESE 1014,7 7 0 0,4
05.12.2018 05:00:00 4,5 4,5 - - 15 8 - - ESE 1015,6 4,2 0 0,6
05.12.2018 04:00:00 4,1 3,9 - - 15 8 - - ESE 1016,5 5 0 0,2
05.12.2018 03:00:00 3,9 3,5 - - 15 8 - - ESE 1017,6 13 0 1,0
05.12.2018 02:00:00 3,8 3,1 - - 13 7 - - ESE 1018,7 10 0 0,8
05.12.2018 01:00:00 3,8 3,0 - - 13 7 - - ESE 1019,5 14 0 0,4
05.12.2018 00:00:00 4,0 3,0 - - 16 9 - - SE 1020,7 16 - 0,2
04.12.2018 23:00:00 4,3 2,9 - - 13 7 - - SSE 1021,4 18 0 0,0
04.12.2018 22:00:00 4,7 2,6 - - 11 6 - - S 1021,8 29 0 0,0
04.12.2018 21:00:00 5,0 2,6 - - 15 8 - - S 1021,9 10 0 0,0
04.12.2018 20:00:00 5,0 3,4 - - 8 4 - - S 1021,9 10 0 0,0
04.12.2018 19:00:00 4,2 3,6 - - 2 1 - - E 1022,0 10 0 0,0
04.12.2018 18:00:00 4,3 3,6 - - 2 1 - - E 1022,0 10 0 0,0
04.12.2018 17:00:00 4,5 3,5 - - 0 0 - - N 1022,3 10 0 0,0
04.12.2018 16:00:00 5,2 3,9 - - 2 1 - - E 1022,3 10 0 0,0
04.12.2018 15:00:00 5,6 3,7 - - 4 2 - - ESE 1022,0 10 0 0,0
04.12.2018 14:00:00 5,8 3,6 - - 5 3 - - SE 1021,8 10 0 0,0
04.12.2018 13:00:00 5,9 3,8 - - 8 4 - - S 1022,0 10 0 0,0
04.12.2018 12:00:00 5,4 3,7 - - 8 4 - - WSW 1021,9 10 0 0,0
04.12.2018 11:00:00 4,8 3,0 - - 9 5 - - SW 1022,1 10 30 0,0
04.12.2018 10:00:00 3,0 2,1 - - 8 4 - - SW 1021,6 10 48 0,0
04.12.2018 09:00:00 2,1 2,1 9,9 10,7 8 4 - - SW 1020,9 10 0 0,0

tt = temperature
td = dewpoint
tt -20cm = temperature -20cm
tt -100cm = temperature -100cm
ff = wind speed
fx = gusts
dd = wind direction
ppp = reduced air pressure
vv = visibility
sd = sunshine duration
rr = precipitation

Next stations